Weather History for PHKO - June, 2014

Change the Weather History Date:

Wednesday, June 11, 2014

  Actual Average Record
Temperature  
Mean Temperature 80 °F -  
Max Temperature 86 °F 81 °F 90 °F (1987)
Min Temperature 75 °F 72 °F 70 °F (1983)
Cooling Degree Days 16    
Growing Degree Days 30 (Base 50)    
Moisture  
Dew Point 70 °F    
Average Humidity 69    
Maximum Humidity 79    
Minimum Humidity 59    
Precipitation  
Precipitation 0.00 in - - ()
Sea Level Pressure  
Sea Level Pressure 30.00 in    
Wind  
Wind Speed 7 mph (South)    
Max Wind Speed 10 mph    
Max Gust Speed -    
Visibility 10 miles    
Events      
Averages and records for this station are not official NWS values.
T = Trace of Precipitation, MM = Missing Value Source: NWS Daily Summary

Daily Weather History Graph

Daily Weather History Graph

Search for Another Location

Airport or City:

Trip Planner

Search our weather history database for the weather conditions in past years. The results will help you decide how hot, cold, wet, or windy it might be!

Date:

Astronomy

Jun. 11, 2014 Rise Set
Actual Time 5:44 AM HST 7:03 PM HST
Civil Twilight 5:20 AM HST 7:27 PM HST
Nautical Twilight 4:51 AM HST 7:56 PM HST
Astronomical Twilight 4:21 AM HST 8:26 PM HST
Moon 5:55 PM HST (6/11) 4:30 AM HST (6/11)
Length of Visible Light 14h 07m
Length of Day
13h 18m
Waxing Gibbous, 98% of the Moon is Illuminated
Jun 11
Waxing Gibbous
Jun 12
Full
Jun 19
Last Quarter
Jun 26
New
Jul 5
First Quarter

Hourly Weather History & Observations

Time (HST) Temp. Heat Index Dew Point Humidity Pressure Visibility Wind Dir Wind Speed Gust Speed Precip Events Conditions
12:53 AM 78.1 °F - 70.0 °F 76% 29.98 in 10.0 mi ESE 5.8 mph - N/A   Mostly Cloudy
1:53 AM 78.1 °F - 70.0 °F 76% 29.97 in 10.0 mi SE 9.2 mph - N/A   Overcast
2:53 AM 77.0 °F - 70.0 °F 79% 29.98 in 10.0 mi ESE 4.6 mph - N/A   Scattered Clouds
3:53 AM 77.0 °F - 69.1 °F 76% 29.97 in 10.0 mi ENE 5.8 mph - N/A   Mostly Cloudy
4:53 AM 75.9 °F - 68.0 °F 76% 29.97 in 10.0 mi SE 5.8 mph - N/A   Clear
5:53 AM 75.9 °F - 68.0 °F 76% 29.99 in 10.0 mi ESE 6.9 mph - N/A   Scattered Clouds
6:53 AM 81.0 °F 83.8 °F 68.0 °F 65% 30.01 in 10.0 mi SSE 5.8 mph - N/A   Overcast
7:53 AM 81.0 °F 83.8 °F 68.0 °F 65% 30.02 in 10.0 mi South 8.1 mph - N/A   Overcast
8:53 AM 82.0 °F 85.5 °F 69.1 °F 65% 30.02 in 10.0 mi South 5.8 mph - N/A   Scattered Clouds
9:53 AM 84.0 °F 87.8 °F 69.1 °F 61% 30.02 in 10.0 mi WSW 8.1 mph - N/A   Clear
10:53 AM 84.9 °F 89.4 °F 70.0 °F 61% 30.03 in 10.0 mi West 10.4 mph - N/A   Clear
11:53 AM 84.0 °F 89.0 °F 71.1 °F 65% 30.02 in 10.0 mi WSW 9.2 mph - N/A   Clear
12:53 PM 84.0 °F 89.0 °F 71.1 °F 65% 30.01 in 10.0 mi SW 9.2 mph - N/A   Clear
1:53 PM 84.9 °F 90.1 °F 71.1 °F 63% 30.00 in 10.0 mi SW 10.4 mph - N/A   Clear
2:53 PM 86.0 °F 90.7 °F 70.0 °F 59% 29.99 in 10.0 mi WSW 9.2 mph - N/A   Partly Cloudy
3:53 PM 84.0 °F 88.4 °F 70.0 °F 63% 29.97 in 10.0 mi West 8.1 mph - N/A   Scattered Clouds
4:53 PM 84.0 °F 88.4 °F 70.0 °F 63% 29.96 in 10.0 mi WSW 8.1 mph - N/A   Mostly Cloudy
5:53 PM 82.9 °F 87.0 °F 70.0 °F 65% 29.96 in 10.0 mi West 5.8 mph - N/A   Partly Cloudy
6:53 PM 82.0 °F 85.9 °F 70.0 °F 67% 29.98 in 10.0 mi WSW 3.5 mph - N/A   Scattered Clouds
7:53 PM 81.0 °F 84.9 °F 71.1 °F 72% 29.99 in 10.0 mi South 8.1 mph - N/A   Scattered Clouds
8:27 PM 80.6 °F 84.6 °F 71.6 °F 74% 30.00 in 10.0 mi South 9.2 mph - N/A   Mostly Cloudy
8:36 PM 80.6 °F 84.6 °F 71.6 °F 74% 30.00 in 10.0 mi South 8.1 mph - N/A   Scattered Clouds
8:53 PM 81.0 °F 84.9 °F 71.1 °F 72% 30.00 in 10.0 mi South 8.1 mph - N/A   Clear
9:50 PM 80.6 °F 84.6 °F 71.6 °F 74% 30.01 in 10.0 mi South 9.2 mph - N/A   Mostly Cloudy
9:53 PM 81.0 °F 84.9 °F 71.1 °F 72% 30.01 in 10.0 mi SSE 8.1 mph - N/A   Mostly Cloudy
10:14 PM 80.6 °F 83.9 °F 69.8 °F 70% 30.01 in 10.0 mi SE 6.9 mph - N/A   Scattered Clouds
10:53 PM 79.0 °F - 69.1 °F 72% 30.02 in 10.0 mi SE 4.6 mph - N/A   Scattered Clouds
11:44 PM 80.6 °F 83.9 °F 69.8 °F 70% 30.01 in 10.0 mi ESE 3.5 mph - N/A   Overcast
11:53 PM 80.1 °F 83.6 °F 71.1 °F 74% 30.01 in 10.0 mi Calm Calm - N/A   Overcast